Forrest,

3:15 AM AWST on December 15, 2017 (GMT +0800)
Forrest

Weather History for YFRT - March, 2014

Change the Weather History Date:

Saturday, March 29, 2014

  Actual Average Record
Temperature  
Mean Temperature 71 °F -  
Max Temperature 90 °F - - ()
Min Temperature 52 °F - - ()
Cooling Degree Days 6    
Growing Degree Days 21 (Base 50)    
Moisture  
Dew Point 45 °F    
Average Humidity 47    
Maximum Humidity 100    
Minimum Humidity 9    
Precipitation  
Precipitation 0.00 in - - ()
Sea Level Pressure  
Sea Level Pressure 29.95 in    
Wind  
Wind Speed 8 mph ()    
Max Wind Speed 15 mph    
Max Gust Speed -    
T = Trace of Precipitation, MM = Missing Value Source: Averaged Metar Reports

Daily Weather History Graph

Daily Weather History Graph

Search for Another Location

Airport or City:

Trip Planner

Search our weather history database for the weather conditions in past years. The results will help you decide how hot, cold, wet, or windy it might be!

Date:

Astronomy

Mar. 29, 2014 Rise Set
Actual Time 5:36 AM AWST 5:28 PM AWST
Civil Twilight 5:12 AM AWST 5:52 PM AWST
Nautical Twilight 4:44 AM AWST 6:20 PM AWST
Astronomical Twilight 4:16 AM AWST 6:48 PM AWST
Moon 3:42 AM AWST (3/29) 4:18 PM AWST (3/29)
Length of Visible Light 12h 39m
Length of Day
11h 51m
Waning Crescent, 4% of the Moon is Illuminated
Mar 29
Waning Crescent
Mar 31
New
Apr 7
First Quarter
Apr 15
Full
Apr 22
Last Quarter

Hourly Weather History & Observations

Time (AWST) Temp. Dew Point Humidity Pressure Visibility Wind Dir Wind Speed Gust Speed Precip Events Conditions
12:00 AM 58 °F 54 °F 83% 30.03 in - East 8.1 mph - -  
12:00 AM 59.0 °F 53.6 °F 82% 30.04 in - East 8.1 mph - N/A   Unknown
12:30 AM 57.2 °F 55.4 °F 94% 30.01 in - ENE 8.1 mph - N/A   Unknown
1:00 AM 57.2 °F 55.4 °F 94% 30.01 in - ENE 6.9 mph - N/A   Unknown
1:30 AM 55.4 °F 55.4 °F 100% 30.01 in - NE 5.8 mph - N/A   Unknown
2:00 AM 55 °F 54 °F 98% 30.00 in - ENE 6.9 mph - -  
2:00 AM 55.4 °F 55.4 °F 100% 30.01 in - ENE 6.9 mph - N/A   Unknown
2:30 AM 55.4 °F 53.6 °F 94% 30.01 in - ENE 6.9 mph - N/A   Unknown
3:00 AM 54 °F 54 °F 98% 30.00 in - East 6.9 mph - -  
3:00 AM 53.6 °F 53.6 °F 100% 30.01 in - ENE 6.9 mph - N/A   Unknown
3:30 AM 53.6 °F 53.6 °F 100% 30.01 in - NE 8.1 mph - N/A   Unknown
4:00 AM 51.8 °F 51.8 °F 100% 30.01 in - NNE 6.9 mph - N/A   Unknown
4:30 AM 53.6 °F 53.6 °F 100% 30.01 in - NE 6.9 mph - N/A   Unknown
5:00 AM 55 °F 54 °F 97% 30.00 in - NNE 9.2 mph - -  
5:00 AM 55.4 °F 53.6 °F 94% 30.01 in - NNE 9.2 mph - N/A   Unknown
5:30 AM 55.4 °F 55.4 °F 100% 30.01 in - NNE 9.2 mph - N/A   Unknown
6:00 AM 56 °F 56 °F 98% 30.01 in - NNE 9.2 mph - -  
6:00 AM 55.4 °F 55.4 °F 100% 30.01 in - NNE 9.2 mph - N/A   Unknown
6:30 AM 59.0 °F 59.0 °F 100% 30.01 in - North 9.2 mph - N/A   Unknown
7:00 AM 64.4 °F 57.2 °F 77% 30.04 in - NNE 11.5 mph - N/A   Unknown
7:30 AM 68.0 °F 53.6 °F 60% 30.04 in - North 12.7 mph - N/A   Unknown
8:00 AM 71 °F 53 °F 43% 30.03 in - North 13.8 mph - -  
8:00 AM 71.6 °F 53.6 °F 53% 30.04 in - North 13.8 mph - N/A   Unknown
8:30 AM 75.2 °F 53.6 °F 47% 30.04 in - North 12.7 mph - N/A   Unknown
9:00 AM 78 °F 51 °F 28% 30.01 in - North 12.7 mph - -  
9:00 AM 78.8 °F 51.8 °F 39% 30.01 in - North 12.7 mph - N/A   Unknown
9:30 AM 80.6 °F 50.0 °F 34% 30.01 in - North 15.0 mph - N/A   Unknown
10:00 AM 82.4 °F 48.2 °F 30% 30.01 in - NNE 15.0 mph - N/A   Unknown
10:30 AM 84.2 °F 46.4 °F 27% 30.01 in - North 13.8 mph - N/A   Unknown
11:00 AM 86 °F 45 °F 14% 29.98 in - North 11.5 mph - -  
11:00 AM 86.0 °F 44.6 °F 23% 29.98 in - North 11.5 mph - N/A   Unknown
11:30 AM 87.8 °F 42.8 °F 21% 29.98 in - North 12.7 mph - N/A   Unknown
12:00 PM 87 °F 42 °F 12% 29.94 in - NNE 12.7 mph - -  
12:00 PM 86.0 °F 42.8 °F 22% 29.95 in - North 12.7 mph - N/A   Unknown
12:30 PM 87.8 °F 41.0 °F 19% 29.92 in - North 10.4 mph - N/A   Unknown
1:00 PM 87.8 °F 41.0 °F 19% 29.92 in - North 12.7 mph - N/A   Unknown
1:30 PM 89.6 °F 41.0 °F 18% 29.89 in - NNW 13.8 mph - N/A   Unknown
2:00 PM 88 °F 41 °F 11% 29.89 in - NNW 8.1 mph - -  
2:00 PM 87.8 °F 41.0 °F 19% 29.89 in - NNW 8.1 mph - N/A   Unknown
2:30 PM 89.6 °F 39.2 °F 17% 29.89 in - North 10.4 mph - N/A   Unknown
3:00 PM 88 °F 38 °F 9% 29.87 in - NNW 5.8 mph - -  
3:00 PM 87.8 °F 37.4 °F 17% 29.89 in - NNW 5.8 mph - N/A   Unknown
3:30 PM 87.8 °F 37.4 °F 17% 29.86 in - NNE 5.8 mph - N/A   Unknown
4:00 PM 87.8 °F 37.4 °F 17% 29.86 in - North 6.9 mph - N/A   Unknown
4:30 PM 87.8 °F 35.6 °F 16% 29.86 in - North 6.9 mph - N/A   Unknown
5:00 PM 85 °F 37 °F 10% 29.86 in - North 8.1 mph - -  
5:00 PM 86.0 °F 37.4 °F 18% 29.86 in - North 8.1 mph - N/A   Unknown
5:30 PM 80.6 °F 37.4 °F 21% 29.89 in - North 8.1 mph - N/A   Unknown
6:00 PM 78 °F 38 °F 14% 29.87 in - North 6.9 mph - -  
6:00 PM 77.0 °F 37.4 °F 24% 29.89 in - North 6.9 mph - N/A   Unknown
6:30 PM 75.2 °F 35.6 °F 24% 29.89 in - NNE 6.9 mph - N/A   Unknown
7:00 PM 73.4 °F 37.4 °F 27% 29.89 in - ENE 8.1 mph - N/A   Unknown
7:30 PM 71.6 °F 37.4 °F 29% 29.89 in - ENE 9.2 mph - N/A   Unknown
8:00 PM 69 °F 37 °F 20% 29.89 in - ENE 6.9 mph - -  
8:00 PM 69.8 °F 37.4 °F 31% 29.89 in - ENE 6.9 mph - N/A   Unknown
8:30 PM 68.0 °F 35.6 °F 30% 29.89 in - ENE 8.1 mph - N/A   Unknown
9:00 PM 67 °F 36 °F 21% 29.89 in - ENE 6.9 mph - -  
9:00 PM 66.2 °F 35.6 °F 32% 29.89 in - ENE 6.9 mph - N/A   Unknown
9:30 PM 66.2 °F 35.6 °F 32% 29.89 in - ENE 8.1 mph - N/A   Unknown
10:00 PM 66.2 °F 35.6 °F 32% 29.89 in - ENE 6.9 mph - N/A   Unknown
10:30 PM 66.2 °F 35.6 °F 32% 29.89 in - NE 8.1 mph - N/A   Unknown
11:00 PM 65 °F 35 °F 22% 29.87 in - NE 5.8 mph - -  
11:00 PM 64.4 °F 35.6 °F 34% 29.86 in - NE 5.8 mph - N/A   Unknown
11:30 PM 64.4 °F 33.8 °F 32% 29.86 in - NE 8.1 mph - N/A   Unknown